Flag for France Weather past 2 weeks in Limoges, France

Now
61 °F

Clear.


Feels Like: 61 °F
Forecast: 54 / 67 °F
Wind: 1 mph from North

Location: Limoges Airport

Current Time: Sep 21, 2014 at 3:10:07 AM

Latest Report: Sep 21, 2014 at 2:30 AM


Visibility: N/A

Pressure: 30.09 "Hg

Humidity: 83%

Dew point: 55 °F

Location of LimogesLocation

Historic Weather in Limoges — Graph

°F

Limoges temperature yesterday

Maximum temperature yesterday: 75 °F (at 2:30 PM)
Minimum temperature yesterday: 59 °F (at 1:30 AM)
Average temperature yesterday: 64 °F

Past Weeks' High & Low Weather Summary

 TemperatureHumidityPressure
High81 °F (Sep 7, 2:30 PM)100% (Sep 9, 2:30 AM)30.12 "Hg (Sep 9, 2:30 AM)
Low54 °F (Sep 12, 6:00 AM)37% (Sep 7, 2:30 PM)29.74 "Hg (Sep 17, 4:30 AM)
Average66 °F71%29.95 "Hg
* Reported Sep 6 2:00 AM — Sep 21 2:00 AM, Limoges, Weather by CustomWeather, © 2014

Note: Actual official high and low records may vary slightly from our data, if they occured in-between our weather recording intervals... More about our weather records

Advertising

Limoges weather history for previous 24 hours

 ConditionsComfort  
Time TempWeatherWind HumidityBarometerVisibility
2:00 AM
Sep 21
61 °FClear.2 mph83%30.07 "HgN/A
1:30 AM61 °FClear.2 mph83%30.07 "HgN/A
1:00 AM61 °FClear.3 mph83%30.07 "HgN/A
12:30 AM63 °FClear.2 mph77%30.07 "HgN/A
12:00 AM63 °FClear.2 mph77%30.07 "HgN/A
11:30 PM
Sep 20
61 °FClear.3 mph83%30.07 "HgN/A
11:00 PM63 °FMild.7 mph77%30.07 "HgN/A
10:30 PM63 °FThunderstorms. Partly cloudy.9 mph77%30.07 "HgN/A
10:00 PM66 °FStrong thunderstorms. Fog.2 mph73%30.07 "Hg1 mi
9:30 PM66 °FClear.2 mph73%30.07 "HgN/A
9:00 PM66 °FMild.3 mph73%30.07 "HgN/A
8:30 PM70 °FThunderstorms. Cloudy.5 mph69%30.04 "HgN/A
8:00 PM72 °FMild.2 mph65%30.04 "HgN/A
3:30 PM75 °FMild.7 mph61%30.01 "HgN/A
3:00 PM75 °FPassing clouds.3 mph61%30.04 "HgN/A
2:30 PM75 °FClear.5 mph61%30.04 "HgN/A
2:00 PM72 °FClear.6 mph69%30.04 "HgN/A
1:30 PM72 °FClear.5 mph65%30.04 "HgN/A
1:00 PM72 °FClear.3 mph65%30.04 "HgN/A
12:30 PM70 °FClear.5 mph69%30.04 "HgN/A
12:00 PM70 °FClear.5 mph69%30.04 "HgN/A
11:30 AM66 °FClear.5 mph78%30.04 "HgN/A
11:00 AM64 °FMild.3 mph78%30.04 "HgN/A
10:30 AM63 °FClear.3 mph83%30.04 "HgN/A
10:00 AM63 °FClear.3 mph77%30.01 "HgN/A
9:30 AM63 °FClear.3 mph77%30.01 "HgN/A
9:00 AM61 °FClear.3 mph83%30.01 "HgN/A
8:30 AM61 °FClear.5 mph83%29.98 "HgN/A
8:00 AM61 °FClear.5 mph77%29.98 "HgN/A
7:30 AM61 °FClear.3 mph77%29.98 "HgN/A
7:00 AM61 °FClear.3 mph83%29.98 "HgN/A
6:30 AM61 °FClear.5 mph83%29.98 "HgN/A
6:00 AM59 °FClear.5 mph88%29.98 "HgN/A
5:30 AM59 °FClear.5 mph88%29.98 "HgN/A
5:00 AM59 °FClear.5 mph88%29.98 "HgN/A
4:30 AM59 °FClear.5 mph88%29.95 "HgN/A
4:00 AM59 °FClear.5 mph88%29.95 "HgN/A
3:00 AM61 °FClear.3 mph83%29.98 "HgN/A
Weather by CustomWeather, © 2014

See weather overviewHow to use our weather pages